{"data":{"norad_id":61715,"epoch":"2026-09-21T07:07:51.449664Z","epoch_age_seconds":119978,"freshness":"FRESH","line1":"1 61715U 24196J   26264.29712326  .00001170  00000+0  45756-4 0  9993","line2":"2 61715  53.1601 270.0181 0001107  83.4882 276.6247 15.34394887107148","mean_motion":15.34394887,"eccentricity":0.0001107,"inclination_deg":53.1601,"raan_deg":270.0181,"arg_perigee_deg":83.4882,"mean_anomaly_deg":276.6247,"bstar":4.5756e-5,"rev_number":10714,"period_min":93.8480708063,"perigee_km":461.96115446593,"apogee_km":463.47571985972,"semimajor_km":6840.8554371628,"source":"CELESTRAK","updated_at":"2026-09-22T09:00:49.411357Z"}}